Location: Peach Mountain Observatory
(42.3967°N, 83.9367°W)
Time: 14:25:02
(UTC-05:00)

deb Explorer IX - Pass Details

Date: 01 February 2020
Orbit: 549 x 1099 km, 38.8° (Epoch: 17 February)

Event Time Altitude Azimuth Distance (km) Brightness Sun altitude
Rises 18:33:46 0° 219° (SW) 3,234 ? -8.6°
Reaches altitude 10° 18:36:22 10° 208° (SSW) 2,401 ? -9.1°
Maximum altitude 18:41:16 29° 150° (SSE) 1,585 ? -9.9°
Enters shadow 18:46:17 12° 95° (E) 2,583 ? -10.8°
